Colby, KS

5:25 PM CST on November 16, 2019 (GMT -0600)
Shaltz

Weather History for KCBK - September, 2019

Change the Weather History Date:

Tuesday, September 10, 2019

  Actual Average (KGLD) Record (KGLD)
Temperature  
Mean Temperature 74 °F -  
Max Temperature 89 °F 85 °F 100 °F (1936)
Min Temperature 60 °F 54 °F 34 °F (1907)
Cooling Degree Days 10    
Growing Degree Days 24 (Base 50)    
Moisture  
Dew Point 59 °F    
Average Humidity 59    
Maximum Humidity 100    
Minimum Humidity 31    
Precipitation  
Precipitation 0.00 in - - ()
Sea Level Pressure  
Sea Level Pressure 29.92 in    
Wind  
Wind Speed 12 mph (SSE)    
Max Wind Speed 24 mph    
Max Gust Speed 34 mph    
Visibility 10 miles    
Events      
Averages and records for this station are not official NWS values.
T = Trace of Precipitation, MM = Missing Value Source: NWS Daily Summary

Daily Weather History Graph

Daily Weather History Graph

Search for Another Location

Airport or City:

Astronomy

Sep. 10, 2019 Rise Set
Actual Time 7:20 AM CDT 8:01 PM CDT
Civil Twilight 6:53 AM CDT 8:28 PM CDT
Nautical Twilight 6:21 AM CDT 9:00 PM CDT
Astronomical Twilight 5:48 AM CDT 9:33 PM CDT
Moon 6:37 PM CDT (9/10) 3:49 AM CDT (9/10)
Length of Visible Light 13h 34m
Length of Day
12h 40m
Waxing Gibbous, 89% of the Moon is Illuminated
Sep 10
Waxing Gibbous
Sep 13
Full
Sep 21
Last Quarter
Sep 28
New
Oct 5
First Quarter

Hourly Weather History & Observations

Time (CDT) Temp. Heat Index Dew Point Humidity Pressure Visibility Wind Dir Wind Speed Gust Speed Precip Events Conditions
12:15 AM 66.2 °F - 55.4 °F 68% 29.94 in 10.0 mi SSW 10.4 mph - N/A   Clear
1:15 AM 68.0 °F - 55.4 °F 64% 29.93 in 10.0 mi South 12.7 mph 18.4 mph N/A   Clear
1:55 AM 73.4 °F - 55.4 °F 53% 29.93 in 10.0 mi South 17.3 mph 24.2 mph N/A   Clear
2:15 AM 71.6 °F - 55.4 °F 57% 29.93 in 10.0 mi South 15.0 mph 18.4 mph N/A   Clear
2:35 AM 71.6 °F - 57.2 °F 60% 29.93 in 10.0 mi South 13.8 mph - N/A   Clear
2:55 AM 71.6 °F - 59.0 °F 64% 29.92 in 10.0 mi South 12.7 mph - N/A   Clear
3:15 AM 71.6 °F - 59.0 °F 64% 29.92 in 10.0 mi South 10.4 mph - N/A   Clear
3:35 AM 69.8 °F - 59.0 °F 68% 29.92 in 10.0 mi South 12.7 mph - N/A   Clear
3:55 AM 69.8 °F - 59.0 °F 68% 29.92 in 10.0 mi South 10.4 mph - N/A   Clear
4:15 AM 69.8 °F - 59.0 °F 68% 29.92 in 10.0 mi South 10.4 mph - N/A   Clear
4:35 AM 68.0 °F - 59.0 °F 73% 29.92 in 10.0 mi South 10.4 mph - N/A   Scattered Clouds
4:55 AM 68.0 °F - 59.0 °F 73% 29.92 in 10.0 mi SSE 8.1 mph - N/A   Scattered Clouds
5:15 AM 68.0 °F - 59.0 °F 73% 29.92 in 10.0 mi SSE 6.9 mph - N/A   Clear
5:35 AM 66.2 °F - 59.0 °F 78% 29.92 in 10.0 mi South 6.9 mph - N/A   Clear
6:15 AM 62.6 °F - 60.8 °F 94% 29.93 in 10.0 mi SE 8.1 mph - N/A   Clear
6:35 AM 62.6 °F - 60.8 °F 94% 29.93 in 10.0 mi SE 8.1 mph - N/A   Clear
6:55 AM 62.6 °F - 60.8 °F 94% 29.94 in 10.0 mi SE 5.8 mph - N/A   Clear
7:15 AM 60.8 °F - 60.8 °F 100% 29.95 in 10.0 mi SE 6.9 mph - N/A   Clear
7:55 AM 64.4 °F - 62.6 °F 94% 29.95 in 10.0 mi SSE 5.8 mph - N/A   Scattered Clouds
8:15 AM 64.4 °F - 62.6 °F 94% 29.97 in 10.0 mi NNE 4.6 mph - N/A   Scattered Clouds
8:35 AM 64.4 °F - 62.6 °F 94% 29.97 in 10.0 mi Calm Calm - N/A   Clear
8:55 AM 64.4 °F - 60.8 °F 88% 29.98 in 10.0 mi Calm Calm - N/A   Scattered Clouds
9:15 AM 66.2 °F - 60.8 °F 83% 29.98 in 10.0 mi Calm Calm - N/A   Mostly Cloudy
9:35 AM 66.2 °F - 62.6 °F 88% 29.98 in 10.0 mi Calm Calm - N/A   Scattered Clouds
10:15 AM 71.6 °F - 62.6 °F 73% 29.98 in 10.0 mi SSW 9.2 mph - N/A   Mostly Cloudy
10:35 AM 73.4 °F - 60.8 °F 65% 29.98 in 10.0 mi South 11.5 mph 16.1 mph N/A   Scattered Clouds
10:55 AM 75.2 °F - 62.6 °F 65% 29.97 in 10.0 mi South 8.1 mph - N/A   Scattered Clouds
11:15 AM 77.0 °F - 62.6 °F 61% 29.97 in 10.0 mi South 10.4 mph - N/A   Clear
11:35 AM 77.0 °F - 62.6 °F 61% 29.97 in 10.0 mi South 12.7 mph - N/A   Clear
11:55 AM 78.8 °F - 60.8 °F 54% 29.97 in 10.0 mi South 11.5 mph 17.3 mph N/A   Clear
12:15 PM 80.6 °F 81.8 °F 62.6 °F 54% 29.96 in 10.0 mi SSE 12.7 mph 17.3 mph N/A   Clear
12:35 PM 80.6 °F 81.8 °F 62.6 °F 54% 29.96 in 10.0 mi South 15.0 mph - N/A   Clear
12:55 PM 82.4 °F 83.4 °F 62.6 °F 51% 29.96 in 10.0 mi South 16.1 mph 23.0 mph N/A   Clear
1:35 PM 86.0 °F 86.1 °F 60.8 °F 43% 29.95 in 10.0 mi South 19.6 mph 24.2 mph N/A   Clear
1:55 PM 87.8 °F 87.1 °F 59.0 °F 38% 29.94 in 10.0 mi South 18.4 mph 25.3 mph N/A   Clear
2:15 PM 87.8 °F 87.1 °F 59.0 °F 38% 29.93 in 10.0 mi SSE 20.7 mph 26.5 mph N/A   Clear
2:35 PM 89.6 °F 88.9 °F 59.0 °F 36% 29.93 in 10.0 mi SSE 21.9 mph 26.5 mph N/A   Clear
3:15 PM 89.6 °F 88.1 °F 57.2 °F 33% 29.91 in 10.0 mi South 19.6 mph 34.5 mph N/A   Clear
3:35 PM 89.6 °F 88.1 °F 57.2 °F 33% 29.90 in 10.0 mi SSE 21.9 mph 27.6 mph N/A   Clear
3:55 PM 89.6 °F 88.1 °F 57.2 °F 33% 29.90 in 10.0 mi SSE 20.7 mph 25.3 mph N/A   Clear
4:15 PM 89.6 °F 88.1 °F 57.2 °F 33% 29.89 in 10.0 mi South 19.6 mph 26.5 mph N/A   Clear
4:35 PM 89.6 °F 88.1 °F 57.2 °F 33% 29.89 in 10.0 mi SSE 24.2 mph 31.1 mph N/A   Clear
4:55 PM 89.6 °F 88.1 °F 57.2 °F 33% 29.88 in 10.0 mi SSE 20.7 mph 28.8 mph N/A   Clear
5:15 PM 89.6 °F 87.7 °F 55.4 °F 31% 29.87 in 10.0 mi SSE 18.4 mph 27.6 mph N/A   Clear
5:35 PM 89.6 °F 87.7 °F 55.4 °F 31% 29.87 in 10.0 mi SSE 18.4 mph 28.8 mph N/A   Clear
5:55 PM 87.8 °F 86.1 °F 55.4 °F 33% 29.88 in 10.0 mi SSE 24.2 mph 29.9 mph N/A   Scattered Clouds
6:15 PM 87.8 °F 86.5 °F 57.2 °F 35% 29.88 in 10.0 mi SSE 18.4 mph 29.9 mph N/A   Clear
6:35 PM 87.8 °F 86.5 °F 57.2 °F 35% 29.88 in 10.0 mi SSE 23.0 mph 27.6 mph N/A   Clear
6:55 PM 86.0 °F 85.4 °F 59.0 °F 40% 29.88 in 10.0 mi SSE 21.9 mph 26.5 mph N/A   Clear
7:15 PM 84.2 °F 83.8 °F 59.0 °F 42% 29.87 in 10.0 mi SSE 18.4 mph 29.9 mph N/A   Clear
7:35 PM 82.4 °F 82.5 °F 59.0 °F 45% 29.87 in 10.0 mi SSE 18.4 mph 24.2 mph N/A   Clear
7:55 PM 80.6 °F 81.1 °F 59.0 °F 48% 29.87 in 10.0 mi South 15.0 mph 20.7 mph N/A   Clear
8:15 PM 78.8 °F - 59.0 °F 51% 29.88 in 10.0 mi South 10.4 mph - N/A   Clear
8:35 PM 77.0 °F - 59.0 °F 54% 29.89 in 10.0 mi South 9.2 mph - N/A   Clear
8:55 PM 75.2 °F - 59.0 °F 57% 29.90 in 10.0 mi South 8.1 mph - N/A   Clear
9:15 PM 73.4 °F - 60.8 °F 65% 29.90 in 10.0 mi SSE 8.1 mph - N/A   Clear
9:35 PM 73.4 °F - 59.0 °F 61% 29.90 in 10.0 mi SSE 12.7 mph - N/A   Clear
9:55 PM 75.2 °F - 59.0 °F 57% 29.91 in 10.0 mi SSE 15.0 mph - N/A   Clear
10:15 PM 75.2 °F - 59.0 °F 57% 29.91 in 10.0 mi SSE 17.3 mph 21.9 mph N/A   Clear
10:35 PM 77.0 °F - 59.0 °F 54% 29.92 in 10.0 mi South 18.4 mph 24.2 mph N/A   Clear
10:55 PM 75.2 °F - 59.0 °F 57% 29.91 in 10.0 mi SSE 15.0 mph 24.2 mph N/A   Clear
11:15 PM 73.4 °F - 59.0 °F 61% 29.92 in 10.0 mi South 15.0 mph 23.0 mph N/A   Clear
11:35 PM 73.4 °F - 59.0 °F 61% 29.92 in 10.0 mi South 13.8 mph 23.0 mph N/A   Clear